STARLINK-5463, 55673

Orbit data source: Space-Track

STARLINK-5463, 55673 is a payload satellite owned by SpaceX/Seattle (US) in LEO that was launched on Fri, 17 Feb 2023 UTC via an FALCON 9 launch vehicle from the Air Force Western Test Range (AFWTR). Payload-class satellites include a variety of spacecraft equipped with specific instruments for various scientific and technological missions. These include communications satellites like Starlink; space stations such as the ISS; scientific satellites like the Hubble; Earth observation satellites from companies like Planet Labs, Umbra, and HawkEye 360; GPS; miniature CubeSats for education and research; and military/defense satellites.

Loading next visibility...
Identifier
55673, 2023-021AX
Orbit
LEO
Country
Flag of USUS
Related business
Manufacturer
SpaceX/Seattle
Mission
Operational Commercial Communications
Bus & Motor
STARLINK, Unknown motor
Mass
305 kg wet, ~290 kg dry
Launch date (UTC)
2023-02-17 (3 years ago)
Launch vehicle
FALCON 9
Launch site
Air Force Western Test Range (AFWTR)
Object type
Payload
Rocket body
Debris
Shape & HBR
Box + 1 Pan, 10.1 m
Radar Cross Section
13.562 m², Large (>1 m²)

Expand to show TLE details & history
Last TLE update: 2 days ago

TLE from 2 days ago
0 STARLINK-5463
1 55673U 23021AX  26171.41222728  .00000847  00000-0  78810-4 0  9996
2 55673  69.9988 265.3592 0003372 273.8651  86.2123 14.98315951184670
Epoch: 2026-06-20T09:53Z
TLE epoch observation values (Epoch: 2026-06-20T09:53:36.436Z)
Latitude
-0.00001°
Longitude
-151.66984°
Altitude
574.369 km
Speed
7.574 km/s
True Right ascension
17h 41m 26s
True Declination
0° 00' 00"
Sunlit
Object was in full shadow at epoch
Visualization orbit readout
Latitude
Unknown
Longitude
Unknown
Altitude
Unknown
Speed
Unknown
Apparent Right ascension
Unknown
Apparent Declination
Unknown
Sunlit
N/A
Visualization observer readout
Local Sidereal Time
21:37:19
Azimuth
Unknown
Elevation
Unknown
Doppler factor
Unknown
Orbital elements
Apogee altitude
572.391 km
Perigee altitude
567.705 km
Semi-major axis
6,948.185 km
Eccentricity
0.00034
Inclination
69.9988°
RAAN
265.3592°
Arg. of periapsis
273.8651°
True anomaly
86.25086°
Mean anomaly
86.2123°
Eccentric anomaly
86.23158°
Mean motion
3.74745 °/min
Orbital period
96.07 mins
BSTAR
0.00007881
Loading maneuver chart data...
Computing Atmospheric mass density...

Documentation

Showing up to 5 results
|